Location: Cherryland
(37.6794°N, 122.1033°W)
Time: 15:07:07
(UTC+00:00)

Helios 1A Rocket - Pass Details

Date: 14 December 2025
Orbit: 433 x 442 km, 98.3° (Epoch: 17 January)

Event Time Altitude Azimuth Distance (km) Brightness Sun altitude
Rises 13:37:25 0° 159° (SSE) 2,400 6.6 -18.8°
Reaches altitude 10° 13:39:25 10° 156° (SSE) 1,540 5.6 -18.5°
Maximum altitude 13:42:40 62° 76° (ENE) 499 2.8 -17.8°
Enters shadow 13:45:19 15° 356° (N) 1,290 4.5 -17.3°
